Wind_Speed
16 14 15 15 13 13 17 20 17 9 27 30 38 24 20 32 24 26 26 30 30 37 36 30 32 35 37 38 41 44 46 49 52 53 54 55 54 54 56 59 62 63 65 67
10 9 10 16 19 22 18 22 20 20 32 37 39 34 26 31 34 25 28 30 29 39 39 36 37 37 40 42 43 48 50 53 54 54 55 55 56 58 61 63 64 66 68 69
11 7 26 25 15 20 19 17 13 18 25 35 31 30 22 22 35 25 29 31 30 36 39 38 41 40 42 44 47 51 53 54 55 55 56 58 60 61 64 65 67 67 69 70
10 18 26 19 22 14 8 23 20 31 36 35 22 26 20 24 36 37 31 29 30 33 38 40 43 42 46 48 53 53 54 52 54 56 57 59 62 65 67 68 70 71 71 72
10 23 23 17 11 24 18 30 33 35 31 30 26 26 24 24 36 39 33 31 28 33 36 41 40 49 47 51 53 55 55 51 54 55 58 61 65 68 69 70 71 70 68 67
14 16 17 18 24 25 24 26 27 25 22 26 25 32 22 27 32 19 31 36 41 39 39 41 45 48 48 52 52 55 54 55 57 57 62 64 70 70 70 70 68 67 67 67
15 17 29 23 21 19 20 16 15 13 19 32 22 19 14 25 27 29 39 44 44 49 46 45 48 46 53 53 54 55 57 61 63 66 68 70 72 70 69 68 68 67 64 58
14 10 27 25 24 18 18 16 10 20 16 23 26 25 24 28 31 35 35 39 46 47 47 50 47 48 49 55 54 59 60 63 68 69 72 72 70 68 67 68 63 59 51 49
19 16 24 31 30 26 17 15 20 22 20 22 14 26 39 34 38 40 37 38 44 50 53 48 49 54 52 58 58 62 67 69 71 71 72 73 70 68 63 57 54 49 46 38
20 22 22 21 28 21 23 18 22 22 21 19 15 21 33 32 42 47 46 49 50 48 46 47 49 52 54 57 62 64 65 70 69 68 68 66 62 55 51 50 45 42 32 27
22 23 18 21 28 21 15 15 18 20 18 21 18 20 36 38 42 45 46 50 51 47 45 47 50 54 58 62 66 70 68 69 69 68 65 61 54 49 47 42 38 28 24 25
25 21 21 19 25 28 23 27 31 32 32 33 32 25 38 43 46 44 44 39 37 42 46 49 53 58 62 65 69 71 66 69 68 64 60 54 46 41 38 33 26 23 24 27
22 23 23 19 22 22 28 24 28 29 33 30 31 26 33 40 41 43 45 41 39 41 46 51 56 60 63 67 71 71 69 65 59 54 50 41 35 33 29 25 23 22 26 28
23 23 23 22 19 26 29 33 33 24 34 34 27 20 28 33 36 45 43 42 40 46 51 57 61 65 66 66 66 68 62 53 48 47 42 33 28 26 24 23 23 25 28 27
22 23 26 25 25 26 26 28 29 26 25 31 28 26 29 40 43 40 41 41 45 51 56 59 62 63 64 62 56 48 45 42 44 40 31 27 22 21 20 21 24 25 26 26
25 23 26 26 26 27 29 24 30 27 25 28 28 32 35 36 35 35 39 42 48 52 58 61 61 62 60 53 48 42 39 36 32 28 24 21 21 19 19 21 23 23 20 22
28 30 27 26 27 27 29 28 28 25 24 29 29 32 33 34 34 38 42 47 53 56 58 59 58 60 54 47 38 34 33 29 26 22 20 19 19 19 21 22 20 18 22 24
31 32 29 28 27 26 27 27 24 23 27 32 31 27 30 32 36 43 46 54 57 60 58 54 58 54 45 36 32 30 27 26 24 22 21 22 24 23 20 18 20 22 23 24
30 29 30 28 28 25 27 25 23 20 29 28 28 30 32 32 40 48 52 59 61 55 52 54 51 41 33 29 29 28 26 26 27 27 25 21 20 21 21 23 23 23 22 20
27 26 29 26 28 26 23 22 23 27 33 29 28 28 30 36 44 50 55 58 48 46 48 44 35 29 26 28 27 28 29 27 25 25 27 26 25 25 22 19 16 15 15 19
29 31 31 27 23 26 25 26 28 29 29 28 28 30 34 42 49 54 58 55 46 44 40 32 27 26 27 27 28 27 28 31 29 27 26 22 18 16 14 14 15 15 16 17
30 29 27 26 26 27 27 28 29 26 26 27 29 32 40 47 51 56 50 43 39 36 29 26 26 26 27 27 30 30 27 26 24 23 21 19 17 16 15 14 14 15 14 14
27 25 23 24 20 22 23 28 26 22 24 26 30 36 44 49 53 51 39 36 32 26 24 25 26 26 28 26 26 26 21 19 18 16 13 13 11 10 9 8 9 9 9 10
25 22 24 28 28 33 34 31 23 25 23 28 33 41 46 51 49 41 35 28 22 22 23 24 25 24 25 24 20 20 19 17 15 13 12 11 10 8 7 6 7 6 7 11
23 20 23 26 30 30 30 17 22 22 25 30 37 43 49 48 40 30 25 18 19 21 22 21 22 23 21 19 18 20 19 17 14 12 10 10 8 6 5 4 5 7 9 11
18 21 26 28 24 27 18 18 19 21 27 32 38 45 46 38 28 23 16 18 19 19 21 20 21 19 20 19 19 20 20 18 16 13 10 8 4 3 4 6 8 10 9 7
Wind_Direction
278 280 285 278 262 266 243 256 247 266 258 268 274 278 271 282 275 277 276 283 287 289 286 284 281 283 284 287 291 295 296 298 299 299 298 296 295 295 296 297 298 298 298 297
289 317 310 253 245 245 234 252 248 254 264 266 266 272 251 242 280 281 281 282 282 282 288 290 288 288 289 292 294 295 296 298 298 298 297 297 297 298 298 298 299 298 298 297
269 230 266 266 271 271 261 269 246 248 257 265 273 278 273 282 280 290 290 288 281 278 284 288 287 290 291 293 294 294 296 296 298 296 297 298 299 299 298 298 298 298 297 295
272 246 267 275 263 268 246 243 234 246 241 260 273 278 272 276 283 287 285 287 284 278 281 286 290 290 292 295 294 295 295 297 297 296 297 298 299 299 300 301 301 299 298 297
247 265 292 274 250 244 227 245 243 255 271 281 284 282 281 272 265 273 275 279 286 288 288 290 295 294 297 294 295 296 296 297 295 297 299 300 301 300 302 300 300 300 299 299
285 299 286 281 277 287 278 267 271 272 282 278 272 258 265 236 255 282 286 288 294 291 293 291 291 294 297 298 297 297 301 299 300 301 300 303 301 305 304 303 303 303 302 301
289 329 295 300 302 300 297 288 287 290 281 300 267 303 312 306 285 283 289 296 296 296 299 298 300 301 301 298 300 302 304 303 305 307 307 305 307 306 307 306 305 304 304 304
275 266 278 287 298 299 275 274 268 272 265 266 304 330 255 275 276 275 278 283 294 294 301 301 297 299 296 298 306 305 301 304 306 307 306 309 309 310 308 306 305 304 307 307
291 256 265 276 279 289 280 275 264 273 270 276 259 280 277 263 265 259 273 284 286 288 298 298 296 298 307 305 303 304 306 309 307 309 309 311 311 309 308 305 305 305 308 308
289 284 266 274 288 290 283 277 276 271 267 270 259 268 292 291 289 288 288 286 287 294 295 297 300 300 302 299 302 304 301 301 305 307 309 311 311 310 308 306 306 307 307 312
282 284 290 258 284 293 273 285 274 274 264 261 279 267 267 274 278 280 283 287 292 294 297 298 298 300 301 304 302 304 306 306 307 310 312 310 312 311 307 307 308 305 309 310
283 290 286 282 263 269 272 270 276 274 271 266 268 264 277 274 279 288 288 299 297 296 298 300 300 302 304 305 304 306 307 305 307 308 310 310 307 305 306 307 304 303 310 313
286 289 288 285 277 285 284 286 286 286 284 279 275 273 276 280 281 281 286 296 298 299 299 299 303 305 306 306 307 306 305 305 306 309 308 304 300 305 307 303 303 303 308 311
290 290 288 284 273 275 282 280 287 279 284 293 292 263 291 288 284 287 302 300 307 305 307 309 310 309 309 309 306 306 308 307 309 312 311 307 306 308 306 305 304 304 306 310
292 294 289 284 279 274 274 281 284 279 277 284 288 284 260 263 276 286 296 305 310 309 309 310 310 310 310 311 312 312 314 314 312 310 308 307 308 307 307 309 306 305 308 311
292 291 290 288 284 280 278 278 280 281 279 268 268 264 275 280 289 301 302 312 310 310 313 310 311 312 316 317 317 319 319 317 317 312 310 312 313 309 307 308 307 308 314 315
292 295 295 292 291 290 288 284 282 282 266 271 274 283 290 295 303 302 311 309 309 314 311 311 314 318 320 319 321 322 322 327 326 321 318 313 310 308 305 304 305 310 313 316
287 288 292 295 293 293 283 289 287 283 272 272 284 289 287 297 302 305 308 307 311 317 312 316 315 316 318 320 321 322 326 327 324 321 317 313 308 306 304 306 307 310 309 311
283 282 289 295 296 295 286 296 284 277 280 290 293 293 297 307 307 309 311 312 317 314 314 314 314 317 319 318 316 321 325 322 319 315 313 313 311 310 307 304 303 302 305 305
290 283 294 297 297 296 284 275 275 279 283 294 290 292 304 307 312 311 309 311 313 313 312 313 316 314 313 314 320 322 320 319 318 313 309 307 307 307 306 305 306 311 311 310
284 292 298 298 294 287 282 274 278 283 290 292 296 302 310 310 310 311 312 314 318 316 317 318 316 314 319 321 321 320 315 311 308 306 306 306 306 308 312 313 312 316 311 315
287 288 289 290 290 281 279 281 272 281 288 291 299 309 311 310 311 310 315 317 317 317 318 317 319 323 324 325 322 317 318 318 314 309 305 305 309 310 307 306 308 309 315 320
284 286 283 272 274 246 262 274 286 287 285 297 306 311 308 310 309 314 314 316 319 317 320 324 327 330 328 326 326 331 334 336 335 334 334 332 332 327 332 333 328 327 327 327
283 285 278 278 269 263 272 277 284 283 294 301 307 310 311 312 315 315 314 316 319 325 329 332 336 334 337 342 349 345 337 337 334 329 332 338 329 324 325 327 325 324 337 346
284 285 280 276 277 278 272 275 280 289 291 301 307 309 311 316 319 322 321 324 331 335 335 337 342 343 348 352 352 353 352 345 339 331 322 335 339 335 333 350 340 341 345 349
294 284 288 289 285 271 276 280 281 284 298 304 306 310 316 320 321 324 331 337 338 342 345 345 343 350 353 355 359 357 358 355 354 349 333 341 1 355 29 16 356 345 344 23
Height
5875 5877 5876 5875 5877 5879 5881 5882 5882 5886 5874 5873 5873 5873 5875 5866 5867 5867 5865 5862 5859 5853 5850 5851 5850 5847 5844 5843 5841 5837 5833 5829 5824 5819 5814 5808 5803 5797 5792 5786 5780 5775 5770 5764
5873 5874 5873 5872 5872 5873 5875 5875 5876 5878 5871 5870 5869 5869 5868 5866 5860 5862 5860 5858 5856 5848 5844 5843 5841 5840 5837 5835 5832 5827 5823 5818 5812 5807 5801 5796 5790 5785 5780 5774 5768 5761 5754 5747
5870 5874 5869 5869 5870 5870 5870 5870 5872 5873 5864 5858 5862 5861 5860 5859 5851 5854 5854 5852 5849 5844 5839 5837 5834 5832 5830 5826 5822 5816 5812 5807 5802 5796 5790 5784 5779 5773 5766 5759 5753 5745 5737 5730
5868 5866 5863 5865 5865 5867 5867 5864 5863 5861 5860 5858 5860 5854 5855 5854 5848 5846 5846 5844 5842 5839 5834 5830 5826 5824 5820 5817 5810 5806 5801 5797 5790 5785 5780 5773 5766 5759 5750 5743 5736 5727 5718 5710
5864 5860 5860 5860 5861 5857 5859 5854 5855 5854 5855 5853 5853 5851 5849 5850 5839 5835 5837 5836 5834 5831 5829 5824 5819 5812 5812 5805 5800 5793 5789 5787 5781 5775 5768 5760 5752 5741 5735 5727 5719 5711 5702 5693
5859 5858 5856 5856 5853 5853 5852 5851 5850 5850 5850 5846 5845 5839 5840 5835 5835 5824 5827 5826 5828 5824 5821 5818 5813 5807 5801 5793 5788 5781 5778 5772 5767 5762 5754 5746 5734 5727 5717 5708 5701 5693 5684 5676
5855 5854 5848 5852 5851 5848 5846 5845 5844 5847 5846 5836 5835 5834 5832 5827 5829 5831 5824 5821 5817 5812 5811 5807 5801 5796 5787 5782 5777 5771 5764 5756 5750 5743 5736 5727 5718 5710 5701 5691 5684 5676 5668 5660
5852 5856 5847 5843 5846 5846 5844 5843 5842 5840 5841 5838 5835 5832 5827 5826 5823 5821 5823 5820 5812 5804 5803 5797 5793 5786 5780 5771 5768 5759 5752 5745 5736 5730 5719 5711 5703 5695 5686 5676 5668 5661 5655 5649
5847 5848 5845 5842 5840 5841 5841 5839 5836 5835 5835 5834 5836 5828 5821 5818 5817 5814 5816 5814 5808 5800 5795 5789 5783 5773 5771 5762 5755 5746 5738 5730 5721 5713 5704 5694 5687 5680 5671 5663 5656 5650 5645 5640
5842 5840 5840 5838 5835 5837 5834 5835 5833 5831 5829 5829 5831 5826 5814 5811 5807 5807 5806 5802 5798 5795 5789 5781 5775 5767 5761 5752 5744 5737 5729 5719 5709 5700 5692 5685 5676 5667 5659 5652 5648 5643 5638 5634
5835 5834 5837 5834 5831 5829 5829 5828 5825 5825 5824 5821 5822 5823 5809 5808 5802 5800 5798 5793 5786 5782 5779 5772 5765 5757 5748 5740 5730 5721 5712 5702 5694 5687 5680 5671 5664 5657 5650 5645 5640 5636 5633 5629
5828 5829 5828 5828 5826 5823 5822 5822 5820 5818 5818 5816 5814 5815 5800 5799 5794 5792 5788 5786 5781 5775 5768 5761 5753 5744 5736 5727 5715 5706 5700 5689 5682 5674 5667 5659 5653 5649 5643 5638 5634 5631 5627 5624
5824 5823 5821 5822 5819 5819 5816 5814 5812 5811 5808 5809 5807 5807 5799 5790 5786 5781 5782 5777 5773 5767 5760 5751 5743 5733 5722 5710 5700 5692 5683 5676 5667 5662 5656 5649 5643 5639 5635 5632 5629 5626 5622 5618
5819 5818 5816 5815 5815 5813 5810 5808 5806 5804 5800 5798 5798 5798 5792 5779 5776 5772 5769 5763 5763 5754 5745 5737 5727 5718 5708 5698 5688 5677 5668 5660 5654 5647 5642 5638 5634 5632 5630 5627 5624 5621 5617 5613
5814 5812 5810 5809 5807 5806 5804 5802 5800 5797 5796 5793 5791 5789 5783 5778 5774 5769 5762 5758 5752 5743 5735 5726 5716 5706 5696 5687 5677 5666 5658 5651 5644 5639 5634 5631 5629 5627 5625 5623 5620 5616 5612 5608
5806 5806 5803 5803 5800 5798 5794 5794 5791 5789 5787 5785 5783 5779 5775 5769 5766 5762 5754 5751 5742 5734 5724 5713 5703 5694 5684 5674 5665 5657 5651 5644 5638 5633 5629 5627 5625 5622 5620 5618 5615 5611 5608 5604
5800 5797 5796 5795 5793 5791 5789 5787 5784 5781 5779 5775 5775 5769 5763 5760 5757 5750 5746 5740 5731 5724 5712 5701 5691 5681 5673 5664 5658 5651 5645 5640 5634 5630 5626 5623 5621 5618 5616 5613 5610 5608 5604 5600
5794 5791 5789 5787 5785 5785 5781 5779 5777 5776 5771 5767 5766 5764 5759 5756 5750 5743 5737 5726 5720 5710 5698 5689 5681 5673 5665 5658 5652 5646 5641 5636 5631 5627 5624 5620 5617 5615 5612 5610 5607 5604 5601 5597
5788 5785 5783 5781 5779 5778 5772 5771 5770 5768 5759 5763 5760 5756 5752 5749 5742 5732 5724 5713 5707 5697 5689 5681 5673 5665 5659 5653 5647 5642 5637 5632 5628 5624 5620 5616 5613 5611 5609 5605 5603 5600 5597 5594
5779 5780 5778 5775 5772 5770 5768 5766 5764 5761 5756 5757 5754 5750 5747 5741 5733 5725 5717 5710 5701 5692 5683 5674 5666 5660 5654 5648 5644 5638 5633 5628 5623 5619 5616 5612 5609 5606 5603 5601 5599 5596 5594 5591
5775 5772 5770 5769 5767 5764 5761 5760 5759 5756 5756 5749 5746 5742 5739 5733 5725 5716 5706 5696 5690 5682 5674 5666 5660 5655 5649 5644 5638 5633 5627 5622 5618 5613 5609 5606 5604 5602 5600 5597 5595 5594 5592 5590
5768 5767 5765 5763 5761 5759 5756 5753 5754 5751 5747 5744 5741 5737 5731 5724 5716 5706 5698 5690 5683 5675 5668 5662 5657 5651 5645 5639 5633 5627 5621 5616 5611 5607 5604 5601 5599 5598 5595 5594 5592 5591 5591 5590
5762 5760 5760 5758 5756 5749 5750 5747 5746 5745 5743 5740 5737 5732 5724 5716 5707 5698 5691 5684 5677 5670 5664 5659 5653 5647 5640 5634 5628 5622 5616 5611 5607 5603 5600 5598 5596 5594 5593 5592 5591 5591 5591 5590
5752 5754 5752 5750 5748 5745 5743 5743 5741 5740 5738 5736 5731 5724 5716 5707 5699 5691 5684 5677 5672 5667 5662 5656 5650 5643 5636 5631 5625 5620 5615 5610 5605 5602 5599 5597 5594 5593 5592 5591 5591 5591 5591 5590
5747 5748 5746 5744 5741 5740 5737 5738 5736 5735 5734 5729 5723 5716 5708 5699 5692 5685 5679 5674 5669 5665 5660 5653 5647 5641 5635 5630 5624 5618 5613 5609 5604 5600 5597 5595 5594 5592 5592 5592 5592 5592 5592 5592
5743 5742 5739 5737 5737 5732 5733 5732 5732 5731 5728 5722 5716 5708 5700 5693 5688 5682 5677 5673 5668 5663 5657 5651 5645 5640 5634 5629 5624 5618 5613 5608 5603 5599 5596 5594 5593 5592 5592 5593 5593 5593 5594 5595